RH
70 75 79 70 88 86 88 85 85 85 86 86 85 92 94 85 81 83 88 80 73 66 62 67 61 46 63 69 56 53 51 50 61 67 69 65 71 76 74 74 74 75 74
75 74 72 73 79 93 83 86 86 86 86 82 88 90 86 91 94 92 85 77 74 77 75 74 72 72 65 63 50 50 56 57 59 69 73 68 69 84 84 72 70 74 74
70 71 67 71 74 81 87 81 84 87 86 84 87 89 94 90 87 86 84 80 79 75 73 74 75 72 78 72 65 62 62 64 65 65 72 76 91 89 84 70 64 61 61
60 71 67 69 74 73 82 88 86 87 89 88 88 90 93 95 90 90 91 92 90 88 88 80 74 82 78 75 64 63 62 58 64 65 68 78 78 78 80 78 68 56 53
58 67 66 64 65 68 80 86 90 88 86 78 81 88 91 91 93 94 94 94 93 93 91 88 87 90 89 86 78 70 64 62 60 66 76 63 74 77 75 72 69 74 66
55 60 60 59 66 66 76 75 78 82 82 85 90 92 92 96 96 91 91 95 95 94 95 95 93 91 84 78 78 70 69 74 71 67 71 76 74 64 59 54 55 50 67
59 55 58 58 66 65 64 68 75 82 88 94 95 93 95 91 92 90 91 95 96 96 93 92 87 81 63 63 66 58 59 72 81 82 86 80 79 74 63 64 59 59 64
69 59 57 54 55 67 69 81 93 94 94 93 91 91 94 97 92 94 97 85 86 83 82 78 75 64 65 68 59 50 56 54 63 75 75 75 71 69 61 59 52 56 50
73 67 59 60 72 85 95 97 95 94 91 89 88 87 82 78 89 86 79 82 78 70 64 56 58 60 64 61 55 53 53 56 60 50 48 48 45 44 41 54 59 50 48
97 83 83 94 99 100 96 93 89 89 90 93 95 88 80 69 70 73 71 68 66 57 49 50 59 61 65 67 70 74 75 77 75 70 68 68 70 64 60 53 63 59 50
100 100 100 99 99 100 94 92 94 97 97 99 100 98 80 70 65 64 65 65 64 66 72 68 65 57 54 58 69 68 64 64 62 64 65 63 56 59 62 61 67 66 63
100 100 100 99 100 96 93 95 95 94 95 99 98 99 99 96 81 70 69 67 68 75 84 84 84 80 78 71 66 68 69 73 74 75 75 69 49 45 44 45 49 45 49
100 100 100 100 100 99 98 98 95 92 96 98 100 100 100 95 95 96 95 96 97 93 94 90 86 82 80 80 82 78 78 73 66 55 52 47 41 39 36 41 42 44 50
100 100 100 100 100 99 98 99 98 99 99 98 96 98 94 92 90 90 82 81 80 77 72 65 62 61 63 59 60 59 56 51 50 48 46 40 37 33 31 29 28 28 28
96 91 86 82 81 80 78 82 78 76 68 72 77 75 69 67 68 75 84 87 80 72 68 62 58 54 52 55 53 51 47 49 48 46 43 39 34 30 30 29 31 31 33
75 66 60 60 60 60 59 57 59 53 48 47 45 45 42 44 47 48 50 56 56 52 51 48 49 48 46 46 44 44 48 50 49 46 41 40 37 34 30 28 32 30 33
56 53 48 45 46 46 45 46 48 41 35 34 35 38 36 36 44 51 48 43 42 43 44 47 48 47 46 44 42 43 44 48 50 49 42 40 37 33 30 30 29 31 38
48 45 45 45 45 42 44 44 45 45 47 50 37 31 28 42 44 44 43 45 42 33 35 38 41 44 46 46 47 47 47 46 44 43 41 38 35 33 32 32 32 37 41
43 40 42 40 37 36 36 35 37 42 45 50 45 41 35 35 35 35 36 40 30 29 30 35 38 39 42 46 47 44 46 46 42 46 37 36 34 33 32 32 33 36 40
39 38 37 36 36 34 34 34 36 37 37 48 47 45 48 41 43 42 35 30 28 29 30 31 32 37 39 42 42 43 40 38 42 38 38 35 33 34 34 33 33 38 39
36 39 42 38 35 36 36 37 41 40 37 38 39 34 34 34 26 27 27 30 32 33 34 37 32 32 31 37 42 42 37 36 39 40 40 37 35 34 34 34 33 36 38
37 36 39 39 43 44 45 49 48 46 40 35 35 21 29 29 24 27 31 33 35 36 38 39 35 32 32 38 42 44 42 38 44 45 44 41 37 36 37 36 36 35 34
42 36 41 44 48 46 44 51 51 47 36 33 30 28 26 26 27 31 34 36 38 39 41 41 40 38 38 42 44 45 47 48 46 48 46 44 39 40 41 40 37 33 33
40 32 30 47 49 43 44 51 44 36 33 30 28 25 24 28 29 39 38 40 40 39 40 37 36 37 40 40 41 46 53 53 59 54 44 38 44 46 49 42 36 36 35
29 32 30 37 40 38 42 39 36 31 30 28 26 25 26 30 32 35 37 39 40 38 36 36 40 42 39 43 49 49 53 59 55 36 26 31 47 50 47 41 39 38 37
29 30 32 30 31 30 32 31 31 32 31 28 26 25 27 29 31 34 36 40 41 36 42 48 47 43 42 51 36 28 37 38 33 25 23 38 52 49 46 46 40 40 38
Wind_Speed
2 3 5 7 8 10 12 14 12 10 9 10 6 9 10 12 13 13 14 16 17 16 13 11 9 11 10 4 5 3 4 6 0 3 9 7 7 9 9 11 13 15 13
3 3 6 4 5 6 8 10 9 9 9 10 11 9 11 13 12 11 12 13 13 11 8 7 4 4 7 7 6 3 2 3 4 10 8 9 10 12 13 9 10 11 12
6 3 1 5 3 2 4 4 6 8 8 8 10 12 13 12 13 14 17 17 16 14 11 10 11 12 10 13 7 7 1 2 2 10 9 10 10 14 13 15 12 9 8
5 3 1 3 5 4 5 5 5 7 7 9 12 14 15 13 12 13 13 10 9 8 6 5 6 11 9 6 10 12 8 7 5 3 12 13 11 10 10 11 9 8 8
5 7 7 5 3 5 7 7 7 8 8 10 13 14 13 13 13 14 13 12 11 9 6 4 3 4 5 3 5 10 13 10 6 5 10 10 12 9 10 8 8 13 9
5 8 12 7 12 8 9 10 10 9 10 12 12 12 11 9 10 8 8 10 10 10 9 7 6 5 6 4 7 6 10 4 6 11 7 9 12 9 6 5 4 5 2
10 7 15 11 11 11 10 10 11 15 19 18 19 17 10 9 7 5 5 7 8 8 8 9 8 10 9 11 8 7 12 18 16 17 19 14 14 11 8 6 7 6 6
7 11 17 14 10 11 10 12 21 22 22 21 19 16 13 11 8 7 8 11 14 15 15 13 12 10 10 12 8 12 16 18 17 16 16 14 11 7 8 5 4 3 3
8 11 16 14 10 16 15 19 21 22 23 23 20 18 17 16 14 15 16 16 14 15 14 13 13 14 13 11 12 17 20 19 19 17 15 12 10 9 6 6 8 6 3
8 8 21 21 21 25 25 25 25 24 22 21 19 18 16 18 14 14 11 15 17 16 19 20 17 15 13 12 16 17 18 16 12 13 13 11 11 12 11 10 5 7 5
20 24 26 24 25 24 27 26 24 22 21 20 20 20 21 19 14 15 18 17 16 16 16 20 19 15 13 12 10 12 11 7 7 6 5 4 5 5 6 8 5 5 9
24 27 25 25 22 21 22 21 20 20 21 22 26 25 24 22 21 20 17 15 14 18 19 18 16 11 11 11 12 10 7 6 3 4 5 1 8 7 11 10 7 7 4
29 29 30 29 27 24 26 26 27 24 25 23 19 20 20 19 20 17 14 14 13 16 16 16 14 13 13 12 9 8 6 5 8 11 10 9 7 7 9 9 6 11 10
29 28 28 29 29 28 26 22 23 19 19 19 19 15 16 16 16 15 17 16 16 16 15 13 12 11 10 9 7 7 9 10 8 9 10 9 7 6 7 7 7 8 10
25 25 26 26 29 27 26 22 22 20 19 19 15 11 12 12 11 10 7 5 7 6 5 4 5 5 5 4 7 7 10 9 9 6 4 5 7 7 6 6 8 8 8
22 23 26 27 26 25 27 27 21 20 19 16 14 12 13 12 11 9 10 10 9 6 8 9 9 10 10 9 9 8 9 8 6 8 8 7 7 8 8 9 9 5 7
21 19 19 19 20 20 20 19 19 19 18 17 14 12 11 13 13 14 12 8 5 7 10 8 7 6 5 4 6 8 9 6 5 6 7 7 8 9 10 11 8 7 8
21 20 17 16 15 19 18 18 18 15 11 9 12 12 12 12 10 8 5 4 1 8 9 9 8 7 6 5 7 9 8 8 10 8 7 7 8 9 11 9 9 6 6
18 14 12 11 11 13 12 12 11 12 13 12 10 11 14 14 11 7 6 4 8 7 7 7 6 5 7 8 7 6 5 2 2 4 7 8 8 9 9 9 9 5 4
14 16 14 11 9 9 8 8 7 7 8 16 11 9 5 4 6 6 6 7 8 8 7 6 5 7 3 3 4 6 7 5 1 7 9 8 8 9 9 9 10 10 9
9 7 2 4 10 7 5 6 9 8 10 12 9 4 2 4 6 7 6 5 6 6 6 5 6 5 3 6 6 6 6 5 6 8 9 10 10 10 9 9 10 11 11
4 5 13 7 4 3 10 7 4 1 1 5 9 5 6 2 6 5 5 4 5 4 5 4 5 5 4 3 3 4 7 7 6 7 9 11 11 11 9 9 10 10 10
3 5 11 9 8 8 6 6 4 5 6 6 8 11 6 2 2 2 2 4 3 3 3 2 3 4 5 5 6 7 7 11 5 7 6 8 10 11 9 11 10 10 10
12 3 4 16 14 9 6 8 9 3 3 5 7 3 1 1 0 5 1 2 1 1 1 3 4 6 7 8 8 6 3 3 4 5 10 6 10 11 9 10 11 11 11
16 3 3 11 11 10 14 12 10 6 5 6 5 4 3 3 3 2 1 1 2 3 4 3 4 6 6 6 3 3 3 6 9 9 7 5 3 8 12 9 10 11 12
11 2 6 9 4 6 10 6 5 6 6 7 6 5 4 5 6 5 3 4 4 1 4 1 2 3 1 2 6 6 6 6 7 8 7 2 5 9 8 8 10 11 13
Wind_Direction
86 36 109 74 68 55 60 64 58 64 67 72 112 145 156 166 163 159 152 172 174 173 175 184 201 226 263 275 344 273 286 306 324 130 161 133 156 171 157 153 174 184 186
123 106 143 143 89 71 82 76 84 83 79 80 100 119 125 130 130 138 141 138 139 133 137 127 114 290 249 312 302 334 329 37 110 155 146 167 160 150 167 143 130 163 170
149 162 147 167 187 162 127 101 100 103 100 107 104 112 123 126 129 126 134 128 111 101 88 77 59 51 45 16 22 36 301 282 41 166 164 176 158 151 138 136 144 136 143
152 169 133 144 197 179 156 135 113 121 123 113 114 114 118 123 127 131 139 139 137 114 94 77 39 40 54 26 357 11 9 347 6 207 173 158 144 158 147 147 150 152 132
166 180 150 124 159 131 130 118 131 138 133 136 118 114 119 118 124 127 129 134 139 132 116 122 125 74 55 50 12 337 329 337 317 290 221 198 172 170 177 167 196 162 140
202 188 151 127 127 122 121 121 120 120 115 131 128 117 110 117 127 126 134 131 125 123 123 117 105 108 92 48 42 343 359 317 247 227 162 130 70 87 109 62 99 142 133
176 209 149 150 147 148 146 131 107 92 94 93 96 102 98 122 144 142 133 136 134 134 134 125 102 98 102 98 86 69 78 75 76 103 97 92 78 67 92 79 68 50 89
216 215 163 160 159 169 137 112 97 91 88 83 76 73 85 94 126 126 129 108 101 103 107 104 118 98 86 106 97 85 75 64 60 80 86 84 77 72 76 72 68 37 314
285 222 179 155 120 107 100 96 99 94 90 85 81 76 79 77 108 112 117 109 100 93 90 96 99 90 93 100 87 82 72 70 65 66 65 64 55 45 34 52 39 24 11
67 127 127 123 123 109 109 102 102 92 88 86 77 77 86 80 84 109 105 101 98 92 91 87 81 85 94 100 106 99 87 79 67 49 41 40 33 23 24 29 24 1 0
104 110 119 119 114 112 113 110 110 108 102 91 82 76 73 75 77 91 117 111 105 101 92 84 77 81 82 83 86 81 76 56 27 21 52 37 28 20 38 39 11 8 353
96 102 104 110 116 114 113 109 106 105 99 95 95 84 79 75 77 78 83 88 108 107 96 90 87 82 77 87 84 82 80 55 8 304 293 337 64 32 359 349 351 4 350
88 87 93 95 96 102 102 103 103 106 106 100 91 89 89 88 82 83 90 95 94 93 92 91 78 72 77 76 78 63 46 40 45 46 43 36 28 10 345 344 341 298 302
91 91 90 93 92 92 91 94 102 103 103 103 100 98 101 96 94 94 90 91 94 92 94 93 86 84 92 77 68 61 47 39 46 27 22 18 18 1 348 354 350 342 327
96 95 92 91 92 88 86 89 95 92 94 96 95 99 102 95 90 94 110 117 121 129 141 112 105 95 89 102 87 77 50 45 32 21 12 0 360 4 20 347 333 337 343
103 102 102 99 97 93 91 87 85 88 90 91 91 92 95 95 94 102 115 116 113 88 109 96 72 65 54 41 38 45 69 40 350 10 17 17 0 344 342 327 315 341 322
116 116 113 110 111 110 107 105 100 88 87 85 84 91 94 100 104 107 102 94 89 84 90 87 80 72 73 56 39 32 26 19 330 0 14 1 357 348 341 329 343 334 13
115 118 119 129 140 124 133 138 136 121 104 89 82 84 97 108 105 93 86 82 342 90 82 57 52 32 28 36 32 24 11 347 10 5 336 358 355 350 327 335 332 23 3
144 141 138 125 116 117 121 116 108 126 135 137 127 109 109 112 107 86 35 1 40 70 57 95 78 38 31 24 9 355 324 1 352 328 357 7 347 337 331 332 327 293 254
85 88 97 117 140 125 128 105 108 121 121 156 153 153 161 192 233 257 117 46 47 39 37 32 57 97 45 43 11 352 336 341 89 15 10 349 347 334 334 336 328 327 320
119 137 33 217 124 91 54 47 65 35 48 83 81 43 206 272 95 77 47 49 46 32 36 32 354 36 58 79 38 336 342 350 50 26 359 345 342 335 336 342 335 328 330
136 171 166 152 96 89 92 93 89 59 298 110 109 80 142 289 82 69 64 47 43 42 48 20 350 5 4 56 354 352 325 351 57 35 356 345 339 329 0 341 317 326 327
308 135 150 146 146 155 142 133 154 237 169 162 160 163 192 110 55 84 52 64 41 49 36 10 340 354 352 6 334 318 338 6 67 28 353 338 323 335 345 330 333 331 351
287 170 285 160 164 192 163 177 197 220 24 153 167 161 184 111 327 114 144 52 31 324 182 11 2 18 1 338 330 351 74 64 16 335 331 344 327 345 340 319 333 355 338
310 162 260 155 172 205 185 225 184 159 185 226 221 187 226 197 236 229 155 203 253 271 62 20 46 8 354 350 353 331 345 334 335 340 340 322 317 314 317 349 354 330 319
306 275 256 274 244 210 194 205 177 187 232 211 221 227 236 240 230 203 217 207 264 20 112 41 25 40 98 57 337 324 321 332 338 339 345 23 339 332 341 338 325 322 316